1489597200.64,51879,10.75,73350.5,-8.73,-9.89,-9.97,0,*51
1489597201.86,51880,10.69,73348.0,-8.73,-9.89,-9.89,0,*58
1489597203.08,51881,10.69,73366.5,-8.73,-9.75,-9.75,0,*59
1489597204.31,51882,10.69,73366.5,-8.75,-9.61,-9.71,0,*5D
1489597205.53,51883,10.75,73384.8,-8.75,-9.61,-9.71,0,*5C
1489597206.77,51884,10.69,73384.5,-8.75,-9.61,-9.61,0,*5A
1489597208.02,51885,10.75,73386.3,-8.75,-9.61,-9.61,0,*5B
1489597209.25,51886,10.69,73414.5,-8.75,-9.71,-9.61,0,*59
1489597210.51,51887,10.69,73430.3,-8.73,-9.61,-9.57,0,*5A
1489597211.75,51888,10.75,73414.0,-8.73,-9.71,-9.71,0,*50
1489597213.02,51889,10.69,73410.5,-8.73,-9.61,-9.61,0,*51
1489597214.29,51890,10.69,73402.3,-8.73,-9.61,-9.61,0,*59
1489597215.53,51891,10.75,73390.8,-8.73,-10.23,-10.23,0,*58
1489597216.78,51892,10.75,73406.5,-8.73,-10.35,-10.27,0,*58
1489597217.99,51893,10.75,73406.0,-8.75,-10.23,-10.23,0,*5C
1489597219.2,51894,10.75,73402.3,-8.75,-10.23,-10.27,0,*5F
1489597220.41,51895,10.75,73414.8,-8.75,-10.09,-10.09,0,*5A
1489597221.62,51896,10.75,73402.5,-8.75,-10.15,-10.09,0,*54
1489597222.82,51897,10.69,73402.5,-8.75,-10.01,-9.97,0,*6F
1489597224.04,51898,10.75,73392.5,-8.77,-9.89,-9.93,0,*5E
1489597225.29,51899,10.75,73390.8,-8.77,-9.89,-9.83,0,*5E
1489597226.51,51900,10.75,73370.8,-8.75,-9.83,-9.75,0,*5E
1489597227.74,51901,10.69,73366.8,-8.77,-9.93,-9.93,0,*54
1489597228.93,51902,10.75,73372.5,-8.75,-9.89,-9.89,0,*55
1489597230.13,51903,10.75,73382.5,-8.75,-9.75,-9.75,0,*54
1489597231.35,51904,10.75,73362.0,-8.75,-9.75,-9.83,0,*5A
1489597232.57,51905,10.75,73358.8,-8.77,-9.89,-9.89,0,*50
1489597233.78,51906,10.75,73364.0,-8.75,-9.71,-9.71,0,*51
1489597235.01,51907,10.75,73346.3,-8.77,-9.75,-9.79,0,*5E
1489597236.26,51908,10.75,73346.8,-8.75,-9.61,-9.61,0,*5F
1489597237.49,51909,10.69,73334.3,-8.77,-9.67,-9.67,0,*5C
1489597238.72,51910,10.75,73378.8,-8.77,-9.67,-9.67,0,*54
1489597239.96,51911,10.75,73314.0,-8.75,-9.57,-9.61,0,*52
1489597241.2,51912,10.75,73340.5,-8.75,-9.57,-9.61,0,*51
1489597242.4,51913,10.75,73370.3,-8.75,-9.71,-9.71,0,*55
1489597243.64,51914,10.75,73370.0,-8.77,-9.75,-9.79,0,*5C
1489597244.88,51915,10.75,73394.0,-8.75,-9.61,-9.61,0,*53
1489597246.13,51916,10.75,73402.8,-8.75,-9.61,-9.61,0,*50
1489597247.37,51917,10.75,73398.3,-8.77,-9.57,-9.67,0,*50
1489597248.62,51918,10.75,73390.0,-8.75,-9.53,-9.53,0,*5E
1489597249.9,51919,10.75,73382.0,-8.77,-9.49,-9.49,0,*5D
1489597251.15,51920,10.75,73384.5,-8.75,-9.45,-9.45,0,*55
1489597252.41,51921,10.75,73392.8,-8.75,-9.45,-9.45,0,*54
1489597253.66,51922,10.75,73388.5,-8.75,-9.45,-9.45,0,*57
1489597254.9,51923,10.75,73370.0,-8.75,-9.57,-9.45,0,*55
1489597256.17,51924,10.75,73402.0,-8.73,-9.53,-9.57,0,*53
1489597257.45,51925,10.75,73380.8,-8.73,-9.45,-9.45,0,*56
1489597258.7,51926,10.75,73400.3,-8.75,-9.45,-9.45,0,*53
1489597259.95,51927,10.75,73406.3,-8.75,-9.45,-9.45,0,*52
1489597261.2,51928,10.75,73410.8,-8.75,-9.45,-9.41,0,*59
1489597262.45,51929,10.75,73370.8,-8.75,-9.45,-9.45,0,*5C
1489597263.71,51930,10.75,73366.5,-8.71,-9.41,-9.41,0,*50
1489597264.99,51931,10.75,73366.5,-8.73,-9.45,-9.45,0,*53
1489597266.26,51932,10.75,73354.8,-8.73,-9.45,-9.41,0,*54
1489597267.54,51933,10.75,73324.5,-8.73,-9.53,-9.53,0,*51
1489597268.79,51934,10.75,73428.8,-8.71,-9.49,-9.41,0,*5C
1489597270.06,51935,10.69,73428.5,-8.73,-9.45,-9.45,0,*57
1489597271.32,51936,10.75,73420.3,-8.71,-9.37,-9.37,0,*56
1489597272.6,51937,10.75,73392.8,-8.73,-9.45,-9.45,0,*55
1489597273.83,51938,10.69,73410.5,-8.71,-9.37,-9.27,0,*59
1489597275.05,51939,10.75,73380.3,-8.73,-9.31,-9.31,0,*5B
1489597276.31,51940,10.69,73422.0,-8.71,-9.41,-9.37,0,*56
1489597277.58,51941,10.69,73436.5,-8.73,-9.53,-9.53,0,*54
1489597278.83,51942,10.75,73422.5,-8.71,-9.57,-9.53,0,*51
1489597280.03,51943,10.75,73394.0,-8.71,-9.71,-9.71,0,*54
1489597281.29,51944,10.75,73416.0,-8.73,-9.75,-9.83,0,*58
1489597282.52,51945,10.75,73454.5,-8.71,-9.57,-9.57,0,*52
1489597283.74,51946,10.69,73440.0,-8.73,-9.89,-9.89,0,*53
1489597285.01,51947,10.69,73412.8,-8.71,-10.67,-10.63,0,*54
1489597286.25,51948,10.75,73422.0,-8.73,-10.93,-10.85,0,*5A
1489597287.51,51949,10.75,73410.5,-8.73,-11.19,-11.07,0,*53
1489597288.72,51950,10.75,73406.8,-8.75,-11.23,-11.23,0,*52
1489597289.98,51951,10.75,73396.8,-8.75,-10.79,-10.71,0,*5B
1489597291.25,51952,10.69,73402.3,-8.77,-10.63,-10.57,0,*55
1489597292.49,51953,10.75,73408.0,-8.81,-10.49,-10.57,0,*55
1489597293.72,51954,10.75,73406.0,-8.81,-10.57,-10.57,0,*5D
1489597294.96,51955,10.75,73420.0,-8.81,-10.57,-10.57,0,*5C
1489597296.25,51956,10.75,73430.8,-8.81,-10.75,-10.79,0,*53
1489597297.49,51957,10.69,73432.8,-8.81,-10.57,-10.57,0,*5E
1489597298.7,51958,10.69,73442.5,-8.83,-10.49,-10.49,0,*53
1489597299.91,51959,10.75,73448.8,-8.83,-10.45,-10.35,0,*55
1489597301.12,51960,10.69,73448.0,-8.83,-10.31,-10.23,0,*5B
1489597302.34,51961,10.75,73448.0,-8.83,-10.23,-10.19,0,*50
1489597303.56,51962,10.75,73442.8,-8.83,-10.31,-10.35,0,*5E
1489597304.76,51963,10.69,73438.3,-8.83,-10.09,-10.09,0,*5B
1489597305.96,51964,10.69,73430.3,-8.83,-9.97,-9.97,0,*5C
1489597307.18,51965,10.69,73420.5,-8.83,-9.83,-9.79,0,*58
1489597308.38,51966,10.75,73410.5,-8.83,-9.79,-9.71,0,*56
1489597309.58,51967,10.69,73422.8,-8.83,-9.79,-9.79,0,*5F
1489597310.79,51968,10.69,73418.8,-8.83,-9.79,-9.79,0,*50
1489597311.99,51969,10.69,73422.8,-8.83,-9.79,-9.79,0,*51
1489597313.19,51970,10.69,73416.3,-8.83,-9.71,-9.79,0,*51
1489597314.4,51971,10.69,73416.8,-8.83,-9.79,-9.79,0,*58
1489597315.6,51972,10.69,73416.8,-8.83,-9.67,-9.71,0,*5C
1489597316.82,51973,10.69,73424.3,-8.83,-9.61,-9.67,0,*5C
1489597318.06,51974,10.69,73426.5,-8.83,-9.61,-9.61,0,*5D
1489597319.29,51975,10.69,73424.8,-8.83,-9.67,-9.61,0,*5A
1489597320.51,51976,10.69,73426.5,-8.81,-9.67,-9.67,0,*5D
1489597321.71,51977,10.69,73422.5,-8.83,-9.67,-9.67,0,*5E
1489597322.91,51978,10.69,73428.0,-8.83,-9.67,-9.67,0,*51
1489597324.11,51979,10.69,73438.3,-8.83,-9.67,-9.67,0,*50
1489597325.35,51980,10.69,73442.3,-8.81,-9.61,-9.67,0,*52
1489597326.62,51981,10.69,73448.5,-8.81,-9.53,-9.61,0,*54
1489597327.87,51982,10.69,73452.8,-8.83,-9.61,-9.53,0,*55
1489597329.12,51983,10.69,73456.8,-8.81,-9.67,-9.53,0,*50
1489597330.4,51984,10.69,73458.3,-8.81,-9.61,-9.53,0,*51
1489597331.67,51985,10.69,73462.5,-8.81,-9.61,-9.53,0,*50
1489597332.94,51986,10.69,73458.5,-8.77,-9.57,-9.61,0,*5E
1489597334.18,51987,10.69,73442.8,-8.75,-9.57,-9.53,0,*5C
1489597335.46,51988,10.69,73424.5,-8.77,-9.49,-9.57,0,*5A
1489597336.74,51989,10.69,73418.5,-8.77,-9.49,-9.49,0,*54
1489597338.02,51990,10.69,73418.0,-8.77,-9.49,-9.49,0,*5C
1489597339.29,51991,10.69,73414.5,-8.77,-9.57,-9.49,0,*52
1489597340.56,51992,10.69,73418.8,-8.77,-9.57,-9.57,0,*5E
1489597341.81,51993,10.69,73428.5,-8.75,-9.53,-9.53,0,*5D
1489597343.09,51994,10.69,73434.0,-8.77,-9.45,-9.49,0,*54
1489597344.36,51995,10.69,73430.0,-8.77,-9.57,-9.61,0,*5C
1489597345.63,51996,10.69,73412.5,-8.77,-9.57,-9.57,0,*5A
1489597346.91,51997,10.69,73414.0,-8.77,-9.45,-9.49,0,*57
1489597348.19,51998,10.69,73392.5,-8.77,-9.45,-9.45,0,*54
1489597349.47,51999,10.69,73384.3,-8.77,-9.49,-9.49,0,*55
1489597350.75,52000,10.69,73416.8,-8.77,-9.45,-9.49,0,*53
1489597352.03,52001,10.69,73430.0,-8.77,-9.45,-9.45,0,*5E
1489597353.28,52002,10.69,73432.0,-8.75,-9.41,-9.41,0,*5F
1489597354.48,52003,10.69,73440.8,-8.75,-9.31,-9.31,0,*5E
1489597355.7,52004,10.69,73446.3,-8.75,-9.45,-9.31,0,*5A
1489597356.89,52005,10.69,73444.0,-8.75,-9.31,-9.31,0,*58
1489597358.09,52006,10.69,73430.0,-8.75,-9.27,-9.31,0,*5C
1489597359.31,52007,10.69,73432.3,-8.75,-9.31,-9.41,0,*5D
1489597360.54,52008,10.69,73470.0,-8.75,-9.31,-9.41,0,*52
1489597361.79,52009,10.69,73452.0,-8.73,-9.31,-9.41,0,*55
1489597363.01,52010,10.69,73438.8,-8.75,-9.57,-9.71,0,*58
1489597364.21,52011,10.69,73438.5,-8.75,-9.71,-9.71,0,*5D
1489597365.41,52012,10.69,73402.3,-8.75,-9.75,-9.75,0,*5E
1489597366.65,52013,10.69,73366.0,-8.77,-9.75,-9.89,0,*5E
1489597367.89,52014,10.69,73346.3,-8.75,-9.61,-9.61,0,*58
1489597369.13,52015,10.69,73406.3,-8.75,-9.57,-9.53,0,*5D
1489597370.38,52016,10.69,73392.5,-8.75,-9.57,-9.53,0,*5E
1489597371.62,52017,10.69,73384.8,-8.75,-9.57,-9.57,0,*5B
1489597372.84,52018,10.69,73372.0,-8.75,-9.57,-9.71,0,*50
1489597374.08,52019,10.69,73374.3,-8.75,-9.57,-9.61,0,*50
1489597375.33,52020,10.69,73376.0,-8.75,-9.41,-9.45,0,*5B
1489597376.55,52021,10.69,73382.0,-8.75,-9.41,-9.31,0,*59
1489597377.83,52022,10.69,73386.3,-8.73,-9.41,-9.41,0,*5B
1489597379.11,52023,10.69,73382.5,-8.73,-9.45,-9.45,0,*5A
1489597380.39,52024,10.69,73394.8,-8.73,-9.41,-9.41,0,*5D
1489597381.65,52025,10.69,73400.5,-8.75,-9.41,-9.41,0,*5A
1489597382.86,52026,10.69,73390.5,-8.75,-9.45,-9.31,0,*5A
1489597384.15,52027,10.69,73402.5,-8.73,-9.41,-9.45,0,*5A
1489597385.42,52028,10.69,73386.0,-8.73,-9.53,-9.57,0,*55
1489597386.69,52029,10.69,73406.0,-8.73,-9.53,-9.53,0,*50
1489597387.94,52030,10.69,73382.8,-8.71,-9.49,-9.53,0,*51
1489597389.21,52031,10.69,73358.0,-8.73,-9.57,-9.57,0,*59
1489597390.48,52032,10.69,73348.5,-8.73,-9.53,-9.53,0,*5A
1489597391.75,52033,10.69,73338.5,-8.73,-9.57,-9.57,0,*5B
1489597393.0,52034,10.69,73380.5,-8.73,-9.31,-9.41,0,*5B
1489597394.22,52035,10.69,73378.3,-8.73,-9.31,-9.31,0,*5D
1489597395.42,52036,10.69,73380.0,-8.71,-9.23,-9.27,0,*58
1489597396.65,52037,10.69,73380.0,-8.73,-9.31,-9.27,0,*58
1489597397.85,52038,10.69,73378.3,-8.71,-9.27,-9.27,0,*52
1489597399.05,52039,10.69,73364.8,-8.71,-9.23,-9.23,0,*53
1489597400.28,52040,10.69,73376.8,-8.73,-9.27,-9.27,0,*5F
1489597401.51,52041,10.69,73348.0,-8.71,-9.37,-9.27,0,*5D
1489597402.71,52042,10.69,73372.3,-8.71,-9.27,-9.23,0,*5B
1489597403.91,52043,10.69,73396.3,-8.71,-9.23,-9.27,0,*5A
1489597405.11,52044,10.69,73392.8,-8.71,-9.23,-9.27,0,*5D
1489597406.31,52045,10.69,73382.8,-8.71,-9.23,-9.27,0,*5C
1489597407.51,52046,10.69,73386.0,-8.71,-9.23,-9.23,0,*5B
1489597408.71,52047,10.69,73384.5,-8.71,-9.23,-9.23,0,*5A
1489597409.94,52048,10.69,73372.5,-8.69,-9.27,-9.27,0,*5C
1489597411.17,52049,10.69,73364.8,-8.69,-9.23,-9.27,0,*59
1489597412.37,52050,10.69,73382.3,-8.71,-9.27,-9.27,0,*5C
1489597413.63,52051,10.69,73398.8,-8.69,-9.23,-9.37,0,*51
1489597414.85,52052,10.69,73390.0,-8.69,-9.23,-9.23,0,*57
1489597416.08,52053,10.69,73380.8,-8.69,-9.27,-9.27,0,*56
1489597417.36,52054,10.69,73378.0,-8.69,-9.37,-9.37,0,*51
1489597418.64,52055,10.69,73378.0,-8.69,-9.37,-9.41,0,*51
1489597419.92,52056,10.69,73390.3,-8.69,-9.37,-9.41,0,*52
1489597421.2,52057,10.69,73384.3,-8.69,-9.41,-9.49,0,*5A
1489597422.48,52058,10.69,73390.8,-8.69,-9.49,-9.41,0,*55
1489597423.76,52059,10.69,73402.0,-8.69,-9.41,-9.41,0,*5C
1489597425.04,52060,10.69,73388.8,-8.69,-9.37,-9.37,0,*56
1489597426.32,52061,10.69,73378.3,-8.69,-9.41,-9.41,0,*57
1489597427.6,52062,10.69,73394.3,-8.69,-9.37,-9.37,0,*54
1489597428.88,52063,10.69,73400.5,-8.69,-9.37,-9.41,0,*54
1489597430.08,52064,10.69,73388.8,-8.67,-9.31,-9.31,0,*5C
1489597431.36,52065,10.69,73390.3,-8.69,-9.37,-9.37,0,*53
1489597432.59,52066,10.69,73404.0,-8.69,-9.27,-9.27,0,*50
1489597433.82,52067,10.69,73398.8,-8.69,-9.27,-9.27,0,*51
1489597435.01,52068,10.69,73404.3,-8.67,-9.23,-9.31,0,*53
1489597436.21,52069,10.69,73392.3,-8.67,-9.23,-9.23,0,*51
1489597437.41,52070,10.69,73400.3,-8.67,-9.23,-9.19,0,*50
1489597438.64,52071,10.69,73398.5,-8.69,-9.27,-9.27,0,*56
1489597439.84,52072,10.69,73398.3,-8.67,-9.23,-9.23,0,*5B
1489597441.07,52073,10.69,73404.3,-8.69,-9.27,-9.27,0,*54
1489597442.26,52074,10.69,73414.0,-8.67,-9.23,-9.23,0,*5D
1489597443.46,52075,10.69,73404.3,-8.67,-9.19,-9.19,0,*5C
1489597444.66,52076,10.69,73400.3,-8.67,-9.23,-9.23,0,*5F
1489597445.86,52077,10.69,73418.5,-8.67,-9.19,-9.23,0,*57
1489597447.06,52078,10.69,73406.3,-8.67,-9.23,-9.23,0,*51
1489597448.26,52079,10.69,73412.5,-8.67,-9.23,-9.23,0,*50
1489597449.48,52080,10.69,73402.3,-8.65,-9.23,-9.23,0,*54
1489597450.7,52081,10.69,73400.8,-8.65,-9.23,-9.23,0,*55
1489597451.92,52082,10.69,73394.5,-8.65,-9.23,-9.19,0,*5F
1489597453.15,52083,10.69,73420.3,-8.65,-9.19,-9.23,0,*5E
1489597454.37,52084,10.69,73432.8,-8.65,-9.31,-9.23,0,*53
1489597455.56,52085,10.69,73432.8,-8.63,-9.31,-9.31,0,*57
1489597456.83,52086,10.69,73422.5,-8.65,-9.53,-9.61,0,*53
1489597458.1,52087,10.69,73392.8,-8.65,-9.61,-9.61,0,*53
1489597459.37,52088,10.69,73412.8,-8.65,-9.45,-9.45,0,*5C
1489597460.63,52089,10.69,73452.5,-8.65,-9.31,-9.37,0,*5B
1489597461.88,52090,10.69,73442.3,-8.65,-9.31,-9.37,0,*53
1489597463.15,52091,10.69,73422.3,-8.65,-9.45,-9.49,0,*58
1489597464.43,52092,10.69,73432.0,-8.65,-9.37,-9.45,0,*52
1489597465.68,52093,10.69,73438.5,-8.65,-9.31,-9.37,0,*50
1489597466.96,52094,10.69,73434.8,-8.65,-9.37,-9.37,0,*51
1489597468.18,52095,10.69,73420.0,-8.65,-9.31,-9.31,0,*50
1489597469.43,52096,10.69,73422.3,-8.65,-9.31,-9.37,0,*55
1489597470.69,52097,10.69,73428.8,-8.65,-9.31,-9.37,0,*54
1489597471.97,52098,10.69,73424.5,-8.65,-9.37,-9.37,0,*5D
1489597473.19,52099,10.69,73420.8,-8.63,-9.31,-9.41,0,*5D
1489597474.46,52100,10.69,73418.8,-8.65,-9.49,-9.49,0,*5D
1489597475.73,52101,10.69,73420.8,-8.65,-9.49,-9.45,0,*50
1489597476.98,52102,10.69,73416.3,-8.63,-9.45,-9.41,0,*5D
1489597478.26,52103,10.69,73424.0,-8.65,-9.45,-9.45,0,*5E
1489597479.53,52104,10.69,73422.8,-8.65,-9.45,-9.49,0,*55
1489597480.81,52105,10.69,73420.8,-8.65,-9.45,-9.45,0,*58
1489597482.08,52106,10.69,73412.8,-8.65,-9.49,-9.49,0,*5B
1489597483.35,52107,10.69,73430.8,-8.65,-9.45,-9.45,0,*5A
1489597484.63,52108,10.69,73426.8,-8.65,-9.45,-9.49,0,*59
1489597485.9,52109,10.69,73418.3,-8.65,-9.49,-9.49,0,*54
1489597487.17,52110,10.69,73402.3,-8.65,-9.49,-9.49,0,*5C
1489597488.45,52111,10.69,73406.8,-8.65,-9.49,-9.53,0,*56
1489597489.69,52112,10.69,73388.5,-8.63,-9.49,-9.57,0,*57
1489597490.96,52113,10.69,73388.8,-8.65,-9.53,-9.53,0,*5F
1489597492.23,52114,10.69,73376.5,-8.65,-9.49,-9.49,0,*58
1489597493.48,52115,10.69,73372.0,-8.63,-9.45,-9.45,0,*5F
1489597494.75,52116,10.69,73384.5,-8.65,-9.49,-9.49,0,*5A
1489597496.03,52117,10.69,73402.5,-8.65,-9.49,-9.49,0,*5B
1489597497.28,52118,10.69,73382.5,-8.63,-9.45,-9.45,0,*52
1489597498.55,52119,10.69,73356.8,-8.65,-9.45,-9.45,0,*55
1489597499.82,52120,10.69,73368.0,-8.65,-9.49,-9.49,0,*5F
1489597501.1,52121,10.69,73364.3,-8.65,-9.45,-9.49,0,*52
1489597502.37,52122,10.69,73380.0,-8.65,-9.45,-9.45,0,*5D
1489597503.62,52123,10.69,73378.8,-8.65,-9.37,-9.31,0,*5A
1489597504.81,52124,10.69,73392.3,-8.63,-9.31,-9.31,0,*5D
1489597506.06,52125,10.69,73376.8,-8.65,-9.37,-9.31,0,*5C
1489597507.25,52126,10.69,73404.0,-8.63,-9.27,-9.31,0,*58
1489597508.48,52127,10.69,73384.5,-8.63,-9.37,-9.27,0,*5F
1489597509.73,52128,10.69,73388.0,-8.65,-9.31,-9.37,0,*51
1489597510.95,52129,10.69,73380.8,-8.65,-9.23,-9.31,0,*55
1489597512.17,52130,10.69,73362.3,-8.65,-9.23,-9.31,0,*5D
1489597513.36,52131,10.69,73370.8,-8.63,-9.27,-9.27,0,*59
1489597514.56,52132,10.69,73350.8,-8.63,-9.27,-9.31,0,*5D
1489597515.76,52133,10.69,73368.5,-8.63,-9.27,-9.27,0,*5B
1489597516.97,52134,10.69,73398.0,-8.65,-9.31,-9.31,0,*5A
1489597518.17,52135,10.69,73400.3,-8.63,-9.19,-9.27,0,*50
1489597519.37,52136,10.69,73426.8,-8.63,-9.19,-9.27,0,*53
1489597520.57,52137,10.69,73404.3,-8.63,-9.19,-9.31,0,*55
1489597521.79,52138,10.69,73394.0,-8.65,-9.19,-9.23,0,*5F
1489597522.98,52139,10.69,73398.3,-8.63,-9.19,-9.23,0,*58
1489597524.18,52140,10.69,73400.8,-8.63,-9.27,-9.27,0,*5F
1489597525.38,52141,10.69,73394.8,-8.63,-9.31,-9.27,0,*59
1489597526.58,52142,10.69,73408.3,-8.63,-9.19,-9.27,0,*50
1489597527.8,52143,10.69,73400.8,-8.65,-9.23,-9.23,0,*5A
1489597529.0,52144,10.69,73384.0,-8.63,-9.19,-9.27,0,*56
1489597530.2,52145,10.69,73376.5,-8.63,-9.19,-9.19,0,*5A
1489597531.42,52146,10.69,73364.8,-8.63,-9.05,-9.15,0,*58
1489597532.68,52147,10.69,73360.5,-8.63,-9.15,-9.15,0,*58
1489597533.93,52148,10.69,73380.3,-8.61,-9.15,-9.19,0,*59
1489597535.19,52149,10.69,73404.8,-8.61,-9.01,-9.15,0,*51
1489597536.44,52150,10.69,73392.0,-8.59,-9.15,-9.15,0,*57
1489597537.63,52151,10.69,73398.3,-8.59,-9.23,-9.23,0,*56
1489597538.85,52152,10.69,73394.8,-8.61,-9.27,-9.31,0,*59
1489597540.13,52153,10.69,73376.0,-8.61,-9.41,-9.41,0,*5F
1489597541.41,52154,10.69,73392.5,-8.61,-9.45,-9.45,0,*58
1489597542.69,52155,10.69,73386.0,-8.61,-9.41,-9.41,0,*59
1489597543.91,52156,10.69,73378.3,-8.61,-9.27,-9.31,0,*5D
1489597545.17,52157,10.69,73386.8,-8.61,-9.15,-9.27,0,*5A
1489597546.37,52158,10.69,73398.8,-8.59,-9.23,-9.27,0,*5B
1489597547.61,52159,10.69,73350.8,-8.59,-9.37,-9.41,0,*5F
1489597548.86,52160,10.69,73364.5,-8.59,-9.41,-9.41,0,*54
1489597550.14,52161,10.69,73360.8,-8.61,-9.45,-9.45,0,*5E
1489597551.42,52162,10.69,73390.5,-8.61,-9.41,-9.41,0,*5D
1489597552.65,52163,10.69,73368.8,-8.61,-9.27,-9.27,0,*5C
1489597553.9,52164,10.69,73380.8,-8.61,-9.15,-9.19,0,*57
1489597555.15,52165,10.69,73382.5,-8.59,-9.11,-9.15,0,*55
1489597556.38,52166,10.69,73384.5,-8.61,-9.19,-9.27,0,*54
1489597557.63,52167,10.69,73392.5,-8.59,-9.15,-9.15,0,*53
1489597558.82,52168,10.69,73402.0,-8.59,-9.23,-9.27,0,*58
1489597560.05,52169,10.69,73402.5,-8.61,-9.27,-9.27,0,*56
1489597561.24,52170,10.69,73400.8,-8.59,-9.23,-9.23,0,*55
1489597562.49,52171,10.69,73392.0,-8.59,-9.15,-9.15,0,*54
1489597563.69,52172,10.69,73384.0,-8.59,-9.27,-9.27,0,*57
1489597564.97,52173,10.69,73370.3,-8.61,-9.45,-9.45,0,*5D
1489597566.21,52174,10.69,73358.8,-8.59,-9.37,-9.41,0,*50
1489597567.46,52175,10.69,73356.8,-8.59,-9.41,-9.45,0,*54
1489597568.72,52176,10.69,73348.8,-8.61,-9.41,-9.27,0,*58
1489597569.91,52177,10.69,73348.8,-8.59,-9.27,-9.23,0,*56
1489597571.1,52178,10.69,73342.5,-8.59,-9.31,-9.27,0,*5A
1489597572.3,52179,10.69,73350.0,-8.59,-9.23,-9.27,0,*58
1489597573.52,52180,10.69,73354.5,-8.61,-9.31,-9.31,0,*51
1489597574.71,52181,10.69,73344.0,-8.59,-9.23,-9.23,0,*5B
1489597575.93,52182,10.69,73358.8,-8.61,-9.31,-9.31,0,*53
1489597577.12,52183,10.69,73360.8,-8.59,-9.23,-9.23,0,*59
1489597578.34,52184,10.69,73404.5,-8.59,-9.11,-9.23,0,*5F
1489597579.6,52185,10.69,73390.5,-8.59,-9.11,-9.11,0,*5F
1489597580.84,52186,10.69,73418.3,-8.59,-9.15,-9.15,0,*5C
1489597582.09,52187,10.69,73408.3,-8.59,-9.15,-9.15,0,*5D
1489597583.29,52188,10.69,73400.3,-8.59,-9.23,-9.27,0,*56
1489597584.51,52189,10.69,73432.8,-8.59,-9.23,-9.15,0,*56
1489597585.7,52190,10.69,73412.3,-8.55,-9.23,-9.23,0,*57
1489597586.92,52191,10.69,73384.8,-8.51,-9.23,-9.19,0,*5B
1489597588.15,52192,10.69,73368.8,-8.51,-9.23,-9.23,0,*51
1489597589.37,52193,10.69,73358.5,-8.55,-9.27,-9.41,0,*54
1489597590.62,52194,10.69,73338.0,-8.55,-9.37,-9.37,0,*53
1489597591.86,52195,10.69,73314.0,-8.55,-9.57,-9.57,0,*52
1489597593.05,52196,10.69,73316.8,-8.59,-9.67,-9.67,0,*5D
1489597594.24,52197,10.69,73334.0,-8.59,-9.67,-9.67,0,*5C
1489597595.44,52198,10.69,73364.0,-8.59,-9.97,-10.09,0,*6C
1489597596.64,52199,10.69,73328.5,-8.59,-10.89,-10.93,0,*59
1489597597.87,52200,10.69,73344.0,-8.61,-10.53,-10.53,0,*5A
1489597599.14,52201,10.69,73344.5,-8.61,-10.57,-10.67,0,*58
1489597600.44,52202,10.69,73358.8,-8.61,-10.41,-10.41,0,*58
1489597601.65,52203,10.69,73318.3,-8.63,-10.27,-10.35,0,*58
1489597602.87,52204,10.69,73304.5,-8.63,-10.27,-10.27,0,*5C
1489597604.08,52205,10.69,73298.8,-8.63,-10.15,-10.09,0,*50
1489597605.32,52206,10.69,73296.5,-8.63,-9.83,-9.83,0,*5E
1489597606.52,52207,10.69,73282.8,-8.63,-9.75,-9.79,0,*53
1489597607.74,52208,10.69,73304.3,-8.63,-9.61,-9.75,0,*55
1489597608.93,52209,10.69,73266.0,-8.63,-9.75,-9.89,0,*52
1489597610.13,52210,10.69,73336.5,-8.63,-9.71,-9.75,0,*5D
1489597611.36,52211,10.69,73346.3,-8.65,-9.67,-9.75,0,*5D
1489597612.58,52212,10.69,73348.3,-8.65,-9.79,-9.89,0,*52
1489597613.8,52213,10.69,73326.3,-8.65,-9.79,-9.89,0,*53
1489597615.03,52214,10.69,73340.8,-8.65,-9.79,-9.89,0,*54
1489597616.25,52215,10.69,73390.8,-8.65,-9.67,-9.75,0,*59
1489597617.49,52216,10.69,73384.5,-8.63,-9.57,-9.57,0,*5F
1489597618.71,52217,10.69,73382.5,-8.65,-9.75,-9.75,0,*58
1489597619.9,52218,10.69,73370.5,-8.63,-9.97,-9.89,0,*5E
1489597621.13,52219,10.69,73362.8,-8.65,-9.79,-9.89,0,*59
1489597622.35,52220,10.69,73334.0,-8.65,-9.67,-9.67,0,*5C
1489597623.62,52221,10.69,73318.3,-8.65,-9.61,-9.61,0,*5D
1489597624.84,52222,10.69,73342.5,-8.65,-9.75,-9.79,0,*52
1489597626.04,52223,10.69,73366.8,-8.63,-9.75,-9.67,0,*5A
1489597627.26,52224,10.69,73340.0,-8.65,-9.79,-9.89,0,*57
1489597628.49,52225,10.69,73344.8,-8.65,-9.75,-9.75,0,*59
1489597629.72,52226,10.69,73362.5,-8.65,-9.75,-9.75,0,*5A
1489597630.94,52227,10.69,73360.5,-8.65,-9.75,-9.75,0,*5B
1489597632.16,52228,10.69,73348.3,-8.65,-9.89,-9.93,0,*5F
1489597633.4,52229,10.69,73338.0,-8.65,-10.15,-10.19,0,*59
1489597634.6,52230,10.69,73354.5,-8.67,-9.79,-9.89,0,*50
1489597635.79,52231,10.69,73360.0,-8.67,-9.89,-9.89,0,*5E
1489597636.99,52232,10.69,73372.3,-8.67,-9.67,-9.67,0,*5D
1489597638.22,52233,10.69,73384.8,-8.65,-10.05,-10.15,0,*5F
1489597639.47,52234,10.69,73382.5,-8.69,-10.19,-10.19,0,*55
1489597640.72,52235,10.69,73360.5,-8.69,-10.35,-10.35,0,*54
1489597641.93,52236,10.69,73366.5,-8.67,-10.23,-10.19,0,*50
1489597643.18,52237,10.69,73348.3,-8.69,-9.83,-9.93,0,*57
1489597644.41,52238,10.69,73366.8,-8.69,-9.79,-9.71,0,*51
1489597645.67,52239,10.69,73354.8,-8.69,-9.79,-9.83,0,*5D
1489597646.86,52240,10.69,73400.3,-8.67,-9.67,-9.67,0,*58
1489597648.09,52241,10.69,73394.8,-8.69,-9.79,-9.79,0,*57
1489597649.32,52242,10.69,73380.3,-8.69,-10.09,-10.05,0,*58
1489597650.56,52243,10.69,73388.8,-8.69,-10.23,-10.23,0,*55
1489597651.76,52244,10.69,73382.5,-8.71,-9.93,-9.93,0,*5B
1489597652.96,52245,10.69,73372.5,-8.71,-9.67,-9.67,0,*5A
1489597654.2,52246,10.69,73392.0,-8.71,-9.57,-9.57,0,*59
1489597655.47,52247,10.69,73392.8,-8.69,-9.57,-9.53,0,*55
1489597656.74,52248,10.69,73406.0,-8.69,-9.57,-9.53,0,*5A
1489597658.02,52249,10.69,73416.5,-8.69,-9.53,-9.53,0,*5F
1489597659.22,52250,10.69,73388.8,-8.67,-9.75,-9.67,0,*5A
1489597660.46,52251,10.69,73398.5,-8.69,-9.57,-9.67,0,*55
1489597661.71,52252,10.69,73392.0,-8.67,-9.61,-9.61,0,*5B
1489597662.94,52253,10.69,73382.8,-8.69,-9.71,-9.79,0,*5C
1489597664.17,52254,10.69,73366.3,-8.69,-9.67,-9.67,0,*53
1489597665.42,52255,10.69,73386.3,-8.69,-9.79,-9.83,0,*57
1489597666.65,52256,10.69,73380.5,-8.69,-10.09,-10.05,0,*5D
1489597667.88,52257,10.69,73390.3,-8.69,-9.97,-10.05,0,*63
1489597669.1,52258,10.69,73366.3,-8.67,-10.15,-10.15,0,*51
1489597670.32,52259,10.69,73386.8,-8.69,-9.97,-9.97,0,*5E
1489597671.57,52260,10.69,73372.0,-8.69,-9.83,-9.93,0,*55
1489597672.8,52261,10.69,73354.8,-8.69,-10.09,-10.09,0,*55
1489597674.02,52262,10.69,73382.3,-8.69,-9.93,-9.93,0,*56
1489597675.24,52263,10.69,73348.0,-8.71,-10.19,-10.31,0,*54
1489597676.45,52264,10.69,73370.5,-8.71,-9.97,-10.01,0,*6E
1489597677.66,52265,10.69,73356.8,-8.71,-9.83,-9.97,0,*5D
1489597678.9,52266,10.69,73374.0,-8.73,-10.01,-10.09,0,*51
1489597680.12,52267,10.69,73364.3,-8.71,-9.83,-9.93,0,*5B
1489597681.34,52268,10.69,73358.3,-8.73,-9.97,-9.89,0,*58
1489597682.55,52269,10.69,73372.5,-8.71,-9.71,-9.79,0,*5C
1489597683.75,52270,10.69,73338.0,-8.71,-9.71,-9.71,0,*5C
1489597684.96,52271,10.69,73336.8,-8.71,-9.71,-9.71,0,*5D
1489597686.21,52272,10.69,73330.3,-8.73,-9.75,-9.61,0,*59
1489597687.41,52273,10.69,73364.3,-8.71,-9.67,-9.67,0,*5F
1489597688.63,52274,10.69,73348.3,-8.71,-9.57,-9.67,0,*5B
1489597689.85,52275,10.69,73358.8,-8.71,-9.57,-9.67,0,*5A
1489597691.08,52276,10.69,73376.0,-8.71,-9.57,-9.57,0,*5A
1489597692.32,52277,10.69,73366.5,-8.71,-9.57,-9.57,0,*5B
1489597693.52,52278,10.69,73372.0,-8.71,-9.67,-9.67,0,*54
1489597694.72,52279,10.69,73382.0,-8.71,-9.67,-9.67,0,*55
1489597695.94,52280,10.69,73378.0,-8.71,-9.57,-9.67,0,*50
1489597697.18,52281,10.69,73368.0,-8.71,-9.57,-9.57,0,*52
1489597698.41,52282,10.69,73368.3,-8.69,-9.67,-9.67,0,*58
1489597699.64,52283,10.69,73374.5,-8.71,-9.57,-9.57,0,*50
1489597700.86,52284,10.69,73380.3,-8.71,-9.57,-9.67,0,*54
1489597702.06,52285,10.69,73402.8,-8.71,-9.67,-9.67,0,*56
1489597703.3,52286,10.69,73404.5,-8.71,-9.57,-9.57,0,*55
1489597704.52,52287,10.69,73404.8,-8.71,-9.57,-9.67,0,*57
1489597705.76,52288,10.69,73404.3,-8.71,-9.57,-9.57,0,*5B
1489597707.0,52289,10.69,73410.0,-8.71,-9.57,-9.57,0,*5A
1489597708.25,52290,10.69,73402.8,-8.71,-9.53,-9.53,0,*52